Date,TemperatureHighF,TemperatureAvgF,TemperatureLowF,DewpointHighF,DewpointAvgF,DewpointLowF,HumidityHigh,HumidityAvg,HumidityLow,PressureMaxIn,PressureMinIn,WindSpeedMaxMPH,WindSpeedAvgMPH,GustSpeedMaxMPH,PrecipitationSumIn
2013-4-1,61.7,54.6,49.3,58.6,52.3,48.4,98,92,76,30.19,30.07,11,1,11,0.15
2013-4-2,63.5,51.0,43.8,53.7,48.3,42.7,97,91,66,30.20,30.13,12,2,12,0.01
2013-4-3,66.1,50.5,45.4,54.8,48.5,44.6,97,93,65,30.14,30.04,11,2,12,0.00
2013-4-4,62.1,53.8,48.5,57.9,51.9,47.7,98,93,75,30.15,30.05,11,2,12,0.10
2013-4-5,62.9,55.8,52.2,54.4,52.1,48.7,97,88,68,30.24,30.15,12,2,12,0.01
2013-4-6,64.3,54.9,47.3,54.4,50.5,45.7,97,86,63,30.25,30.18,11,2,11,0.01
2013-4-7,61.2,53.8,47.4,54.1,50.1,46.6,97,88,71,30.21,29.95,12,2,12,0.05
2013-4-8,56.9,50.7,46.7,50.7,43.4,40.3,97,77,60,30.03,29.91,23,6,27,0.04
2013-4-9,63.6,52.7,41.7,47.5,42.9,35.7,97,72,42,30.10,30.01,24,2,24,0.00
2013-4-10,72.4,59.8,50.4,50.3,49.4,47.8,97,70,46,30.20,30.12,12,2,12,0.00
2013-4-11,59.9,51.0,47.1,49.7,47.1,43.6,97,87,57,30.14,29.93,15,2,16,0.00
2013-4-12,57.4,49.5,42.5,49.8,46.4,41.3,97,90,74,29.96,29.88,12,2,13,0.00
2013-4-13,50.9,46.9,44.9,48.2,45.7,44.0,97,96,87,29.96,29.90,9,1,11,0.00
2013-4-14,55.7,48.1,39.3,47.6,42.4,38.2,96,82,62,29.99,29.89,20,3,20,0.00
2013-4-15,53.4,48.6,44.3,48.5,42.1,38.2,97,79,63,30.04,29.91,23,4,26,0.03
2013-4-16,57.4,47.4,37.9,43.7,40.4,36.6,96,78,50,30.14,29.98,19,3,26,0.00
2013-4-17,60.9,49.3,37.1,42.2,37.2,31.1,93,66,37,30.28,30.14,21,3,22,0.00
2013-4-18,70.7,52.3,41.1,47.0,38.8,27.4,97,63,21,30.30,30.20,11,2,12,0.00
2013-4-19,66.0,52.8,42.6,50.4,44.9,37.3,97,76,44,30.27,30.12,11,1,11,0.00
2013-4-20,70.8,54.0,44.6,51.6,47.2,43.8,97,80,43,30.13,30.03,13,2,13,0.00
2013-4-21,80.2,59.0,45.5,48.9,45.3,39.2,97,65,24,30.06,29.96,8,1,8,0.00
2013-4-22,59.9,52.7,46.9,51.4,47.7,40.5,97,84,58,30.01,29.92,13,2,13,0.00
2013-4-23,60.9,51.8,45.5,51.6,48.6,44.5,97,89,69,30.00,29.89,12,2,12,0.00
2013-4-24,62.3,53.1,45.3,51.2,49.0,44.5,97,87,64,30.00,29.85,15,2,17,0.00
2013-4-25,62.9,54.9,47.7,51.6,49.2,46.1,97,82,59,30.16,29.99,11,1,11,0.00
2013-4-26,61.2,51.1,44.3,50.5,47.5,43.4,97,88,66,30.26,30.13,14,2,14,0.00
2013-4-27,62.7,51.0,46.6,51.7,48.2,45.7,97,91,68,30.24,30.11,12,2,12,0.00
2013-4-28,61.1,51.9,45.6,51.1,48.0,44.8,97,87,68,30.11,29.91,13,2,13,0.00
2013-4-29,80.9,57.3,49.2,54.0,48.8,45.6,93,76,30,29.95,29.85,9,1,11,0.00
2013-4-30,59.7,52.5,46.9,49.6,46.9,43.9,97,82,64,29.91,29.83,11,2,11,0.00